• In Austria
  • List of Countries
  • For 7 days
  • Water Temperature
  • Satellite Maps
  • Weather Map
  • News
  • Weather Widgets
  • user-avatar
    Login

    Hourly Weather Ząbki

    Today, 18 February, Sunday

    Time Temperature Precipitation Wind Pressure Humidity
    00:00 -2°C° 0 mm 2 mps 758 mmHg 92%
    01:00 -2°C° 0 mm 2 mps 758 mmHg 92%
    02:00 -2°C° 0 mm 2 mps 759 mmHg 92%
    03:00 -2°C° 0 mm 3 mps 759 mmHg 91%
    04:00 -2°C° 0 mm 3 mps 759 mmHg 91%
    05:00 -2°C° 0 mm 3 mps 759 mmHg 91%
    06:00 -3°C° 0 mm 2 mps 760 mmHg 91%
    07:00 -3°C° 0 mm 2 mps 760 mmHg 91%
    08:00 -2°C° 0 mm 3 mps 760 mmHg 85%
    09:00 -2°C° 0 mm 3 mps 760 mmHg 79%
    10:00 -1°C° 0 mm 3 mps 761 mmHg 74%
    11:00 -2°C° 0 mm 4 mps 761 mmHg 71%
    12:00 -1°C° 0 mm 4 mps 761 mmHg 68%
    13:00 -1°C° 0 mm 4 mps 761 mmHg 65%
    14:00 0°C° 0 mm 3 mps 761 mmHg 66%
    15:00 0°C° 0 mm 3 mps 761 mmHg 66%
    16:00 -1°C° 0 mm 3 mps 761 mmHg 67%
    17:00 -1°C° 0 mm 2 mps 762 mmHg 70%
    18:00 -1°C° 0 mm 2 mps 762 mmHg 73%
    19:00 0°C° 0 mm 1 mps 762 mmHg 76%
    20:00 0°C° 0 mm 1 mps 762 mmHg 77%
    21:00 0°C° 0 mm 1 mps 762 mmHg 78%
    22:00 0°C° 0 mm 1 mps 762 mmHg 79%
    23:00 0°C° 0 mm 1 mps 762 mmHg 80%

    Tomorrow, 19 February, Monday

    Time Temperature Precipitation Wind Pressure Humidity
    00:00 0°C° 0 mm 1 mps 762 mmHg 80%
    01:00 -1°C° 0 mm 1 mps 762 mmHg 81%
    02:00 -1°C° 0 mm 1 mps 762 mmHg 80%
    03:00 -1°C° 0 mm 1 mps 761 mmHg 80%
    04:00 -1°C° 0 mm 1 mps 761 mmHg 80%
    05:00 -1°C° 0 mm 1 mps 761 mmHg 80%
    06:00 -1°C° 0 mm 1 mps 761 mmHg 79%
    07:00 -1°C° 0 mm 1 mps 761 mmHg 79%
    08:00 0°C° 0 mm 1 mps 761 mmHg 75%
    09:00 +1°C° 0 mm 1 mps 761 mmHg 70%
    10:00 +1°C° 0 mm 2 mps 761 mmHg 66%
    11:00 +1°C° 0 mm 2 mps 761 mmHg 63%
    12:00 +1°C° 0 mm 2 mps 760 mmHg 60%
    13:00 +2°C° 0 mm 2 mps 760 mmHg 58%
    14:00 +3°C° 0 mm 1 mps 760 mmHg 60%
    15:00 +2°C° 0 mm 1 mps 760 mmHg 62%
    16:00 +2°C° 0 mm 1 mps 759 mmHg 65%
    17:00 +1°C° 0 mm 1 mps 759 mmHg 67%
    18:00 +1°C° 0 mm 1 mps 759 mmHg 70%
    19:00 -2°C° 0 mm 2 mps 759 mmHg 73%
    20:00 -2°C° 0 mm 2 mps 759 mmHg 74%
    21:00 -2°C° 0 mm 2 mps 759 mmHg 75%
    22:00 -2°C° 0 mm 2 mps 759 mmHg 77%
    23:00 -2°C° 0 mm 2 mps 759 mmHg 78%

    Day after tomorrow, 20 February, Tuesday

    Time Temperature Precipitation Wind Pressure Humidity
    00:00 -2°C° 0 mm 2 mps 759 mmHg 79%
    01:00 -3°C° 0 mm 2 mps 759 mmHg 80%
    02:00 -3°C° 0 mm 2 mps 759 mmHg 80%
    03:00 -3°C° 0 mm 2 mps 758 mmHg 81%
    04:00 -3°C° 0 mm 2 mps 758 mmHg 82%
    05:00 -3°C° 0 mm 2 mps 758 mmHg 81%
    06:00 -3°C° 0 mm 2 mps 758 mmHg 81%
    07:00 -4°C° 0 mm 3 mps 758 mmHg 80%
    08:00 -4°C° 0 mm 3 mps 758 mmHg 74%
    09:00 -2°C° 0 mm 3 mps 758 mmHg 69%
    10:00 -2°C° 0 mm 4 mps 758 mmHg 63%
    11:00 -2°C° 0 mm 4 mps 758 mmHg 60%
    12:00 -1°C° 0 mm 4 mps 758 mmHg 57%
    13:00 -1°C° 0 mm 4 mps 757 mmHg 54%
    14:00 -1°C° 0 mm 4 mps 757 mmHg 56%
    15:00 0°C° 0 mm 3 mps 757 mmHg 59%
    16:00 0°C° 0 mm 3 mps 757 mmHg 61%
    17:00 -1°C° 0 mm 3 mps 757 mmHg 64%
    18:00 -2°C° 0 mm 3 mps 757 mmHg 68%
    19:00 -2°C° 0 mm 3 mps 757 mmHg 72%
    20:00 -4°C° 0 mm 3 mps 757 mmHg 73%
    21:00 -4°C° 0 mm 3 mps 757 mmHg 74%
    22:00 -4°C° 0 mm 3 mps 757 mmHg 75%
    23:00 -4°C° 0 mm 3 mps 757 mmHg 76%

    21 February, Wednesday

    Time Temperature Precipitation Wind Pressure Humidity
    00:00 -4°C° 0 mm 3 mps 757 mmHg 77%
    01:00 -4°C° 0 mm 3 mps 757 mmHg 78%
    02:00 -4°C° 0 mm 3 mps 757 mmHg 79%
    03:00 -5°C° 0 mm 3 mps 757 mmHg 79%
    04:00 -5°C° 0 mm 3 mps 757 mmHg 80%
    05:00 -5°C° 0 mm 3 mps 757 mmHg 81%
    06:00 -5°C° 0 mm 3 mps 757 mmHg 81%
    07:00 -5°C° 0 mm 3 mps 757 mmHg 82%
    08:00 -5°C° 0 mm 3 mps 757 mmHg 77%
    09:00 -4°C° 0 mm 3 mps 757 mmHg 72%
    10:00 -2°C° 0 mm 3 mps 757 mmHg 66%
    11:00 -1°C° 0 mm 3 mps 757 mmHg 63%
    12:00 -1°C° 0 mm 3 mps 757 mmHg 60%
    13:00 0°C° 0 mm 3 mps 757 mmHg 56%
    14:00 0°C° 0 mm 3 mps 757 mmHg 58%
    15:00 0°C° 0 mm 3 mps 757 mmHg 59%
    16:00 -1°C° 0 mm 3 mps 757 mmHg 61%
    17:00 -1°C° 0 mm 3 mps 757 mmHg 64%
    18:00 -2°C° 0 mm 3 mps 757 mmHg 67%
    19:00 -2°C° 0 mm 3 mps 757 mmHg 71%
    20:00 -4°C° 0 mm 3 mps 757 mmHg 72%
    21:00 -4°C° 0 mm 3 mps 758 mmHg 74%
    22:00 -4°C° 0 mm 3 mps 758 mmHg 75%
    23:00 -4°C° 0 mm 3 mps 758 mmHg 77%

    22 February, Thursday

    Time Temperature Precipitation Wind Pressure Humidity
    00:00 -4°C° 0 mm 3 mps 758 mmHg 79%
    01:00 -4°C° 0 mm 3 mps 758 mmHg 80%
    02:00 -5°C° 0 mm 3 mps 758 mmHg 81%
    03:00 -5°C° 0 mm 3 mps 758 mmHg 82%
    04:00 -5°C° 0 mm 3 mps 757 mmHg 84%
    05:00 -5°C° 0 mm 3 mps 757 mmHg 84%
    06:00 -5°C° 0 mm 4 mps 757 mmHg 84%
    07:00 -7°C° 0 mm 4 mps 757 mmHg 84%
    08:00 -5°C° 0 mm 4 mps 757 mmHg 81%
    09:00 -5°C° 0 mm 4 mps 757 mmHg 77%
    10:00 -5°C° 0 mm 5 mps 757 mmHg 73%
    11:00 -4°C° 0 mm 5 mps 757 mmHg 71%
    12:00 -4°C° 0 mm 5 mps 756 mmHg 68%
    13:00 -2°C° 0 mm 5 mps 756 mmHg 66%
    14:00 -4°C° 0 mm 5 mps 755 mmHg 66%
    15:00 -4°C° 0 mm 5 mps 755 mmHg 67%
    16:00 -4°C° 0 mm 5 mps 755 mmHg 68%
    17:00 -4°C° 0 mm 5 mps 754 mmHg 69%
    18:00 -4°C° 0 mm 5 mps 754 mmHg 71%
    19:00 -4°C° 0 mm 5 mps 754 mmHg 72%
    20:00 -5°C° 0.1 mm 5 mps 754 mmHg 75%
    21:00 -5°C° 0.1 mm 5 mps 753 mmHg 77%
    22:00 -5°C° 0.1 mm 5 mps 753 mmHg 79%
    23:00 -5°C° 0.3 mm 5 mps 752 mmHg 82%

    23 February, Friday

    Time Temperature Precipitation Wind Pressure Humidity
    00:00 -5°C° 0.3 mm 5 mps 752 mmHg 84%
    01:00 -5°C° 0.3 mm 5 mps 751 mmHg 87%
    02:00 -6°C° 0.4 mm 5 mps 751 mmHg 88%
    03:00 -6°C° 0.4 mm 5 mps 750 mmHg 88%
    04:00 -6°C° 0.4 mm 5 mps 750 mmHg 89%
    05:00 -5°C° 0.2 mm 4 mps 749 mmHg 89%
    06:00 -5°C° 0.2 mm 4 mps 749 mmHg 89%
    07:00 -5°C° 0.2 mm 4 mps 749 mmHg 88%
    08:00 -5°C° 0.1 mm 4 mps 749 mmHg 87%
    09:00 -5°C° 0.1 mm 4 mps 748 mmHg 85%
    10:00 -4°C° 0.1 mm 4 mps 748 mmHg 83%
    11:00 -4°C° 0 mm 3 mps 748 mmHg 82%
    12:00 -2°C° 0 mm 3 mps 748 mmHg 80%
    13:00 -2°C° 0 mm 3 mps 748 mmHg 79%
    14:00 -2°C° 0 mm 3 mps 747 mmHg 79%
    15:00 -2°C° 0 mm 3 mps 747 mmHg 79%
    16:00 -2°C° 0 mm 3 mps 747 mmHg 79%
    17:00 -4°C° 0 mm 3 mps 747 mmHg 81%
    18:00 -4°C° 0 mm 3 mps 747 mmHg 83%
    19:00 -5°C° 0 mm 3 mps 747 mmHg 85%
    20:00 -5°C° 0.1 mm 3 mps 747 mmHg 86%
    21:00 -5°C° 0.1 mm 3 mps 747 mmHg 87%
    22:00 -5°C° 0.1 mm 4 mps 747 mmHg 87%
    23:00 -5°C° 0.3 mm 4 mps 747 mmHg 89%
    Show more